Location: *
(44.1392°N, 4.8079°E)
Time: 06:56:14
(UTC+00:00)

Cosmos 1500 Rocket - Pass Details

Date: 21 June 2021
Orbit: 604 x 630 km, 82.5° (Epoch: 31 July)

Event Time Altitude Azimuth Distance (km) Brightness Sun altitude
Exits shadow 02:41:07 - 170° (S) 2,568 6.4 -11.0°
Reaches altitude 10° 02:42:40 10° 166° (SSE) 1,954 5.8 -10.9°
Maximum altitude 02:46:48 46° 93° (E) 818 4.5 -10.4°
Drops below altitude 10° 02:50:57 10° 20° (NNE) 1,961 7.4 -9.9°
Sets 02:53:13 0° 15° (NNE) 2,869 8.2 -9.6°
